"FRM_AIS_EDR_2197.DAT           ",2005-09-29T21:40:26.03 ,"1/0076110020.62796",    0,    0,  274896,"AIS","B1","B1","B1","B1","PISd",0,0,0,0,"B1", 0,15,   0, 0,    0,"AIS","N/A    ","OK ","OK ",    001245.638,    -085.986,    0129.645,    0005.087,    0068.787
"FRM_AIS_EDR_2197.DAT           ",2005-09-29T21:40:33.57 ,"1/0076110028.32859",    0,    1,  274896,"AIS","B1","B1","B1","B1","PISd",0,0,0,0,"B1", 0,15,   0, 0,    0,"AIS","N/A    ","OK ","OK ",    001235.050,    -086.149,    0133.607,    0005.353,    0068.487
"FRM_AIS_EDR_2197.DAT           ",2005-09-29T21:40:41.11 ,"1/0076110036.02922",    0,    2,  274896,"AIS","B1","B1","B1","B1","PISd",0,0,0,0,"B1", 0,15,   0, 0,    0,"AIS","N/A    ","OK ","OK ",    001224.490,    -086.292,    0137.918,    0005.643,    0068.186
"FRM_AIS_EDR_2197.DAT           ",2005-09-29T21:40:48.66 ,"1/0076110043.38522",    0,    3,  274896,"AIS","B1","B1","B1","B1","PISd",0,0,0,0,"B1", 0,15,   0, 0,    0,"AIS","N/A    ","OK ","OK ",    001213.958,    -086.413,    0142.572,    0005.955,    0067.883
"FRM_AIS_EDR_2197.DAT           ",2005-09-29T21:40:56.20 ,"1/0076110051.08585",    0,    4,  274896,"AIS","B1","B1","B1","B1","PISd",0,0,0,0,"B1", 0,15,   0, 0,    0,"AIS","N/A    ","OK ","OK ",    001203.455,    -086.509,    0147.539,    0006.288,    0067.579
"FRM_AIS_EDR_2197.DAT           ",2005-09-29T21:41:03.74 ,"1/0076110058.44184",    0,    5,  274896,"AIS","B1","B1","B1","B1","PISd",0,0,0,0,"B1", 0,15,   0, 0,    0,"AIS","N/A    ","OK ","OK ",    001192.980,    -086.578,    0152.771,    0006.639,    0067.273
"FRM_AIS_EDR_2197.DAT           ",2005-09-29T21:41:11.29 ,"1/0076110066.14248",    0,    6,  274896,"AIS","B1","B1","B1","B1","PISd",0,0,0,0,"B1", 0,15,   0, 0,    0,"AIS","N/A    ","OK ","OK ",    001182.536,    -086.616,    0158.194,    0007.003,    0066.967
"FRM_AIS_EDR_2197.DAT           ",2005-09-29T21:41:18.83 ,"1/0076110073.49847",    0,    7,  274896,"AIS","B1","B1","B1","B1","PISd",0,0,0,0,"B1", 0,15,   0, 0,    0,"AIS","N/A    ","OK ","OK ",    001172.121,    -086.624,    0163.718,    0007.373,    0066.659
"FRM_AIS_EDR_2197.DAT           ",2005-09-29T21:41:26.37 ,"1/0076110081.19910",    0,    8,  274896,"AIS","B1","B1","B1","B1","PISd",0,0,0,0,"B1", 0,15,   0, 0,    0,"AIS","N/A    ","OK ","OK ",    001161.737,    -086.599,    0169.239,    0007.743,    0066.349
"FRM_AIS_EDR_2197.DAT           ",2005-09-29T21:41:33.91 ,"1/0076110088.55510",    0,    9,  274896,"AIS","B1","B1","B1","B1","PISd",0,0,0,0,"B1", 0,15,   0, 0,    0,"AIS","N/A    ","OK ","OK ",    001151.384,    -086.543,    0174.656,    0008.106,    0066.038
"FRM_AIS_EDR_2197.DAT           ",2005-09-29T21:41:41.46 ,"1/0076110096.25573",    0,   10,  274896,"AIS","B1","B1","B1","B1","PISd",0,0,0,0,"B1", 0,15,   0, 0,    0,"AIS","N/A    ","OK ","OK ",    001141.062,    -086.457,    0179.877,    0008.456,    0065.726
"FRM_AIS_EDR_2197.DAT           ",2005-09-29T21:41:49.00 ,"1/0076110103.61172",    0,   11,  274896,"AIS","B1","B1","B1","B1","PISd",0,0,0,0,"B1", 0,15,   0, 0,    0,"AIS","N/A    ","OK ","OK ",    001130.772,    -086.342,    -175.168,    0008.789,    0065.413
"FRM_AIS_EDR_2197.DAT           ",2005-09-29T21:41:56.54 ,"1/0076110111.31236",    0,   12,  274896,"AIS","B1","B1","B1","B1","PISd",0,0,0,0,"B1", 0,15,   0, 0,    0,"AIS","N/A    ","OK ","OK ",    001120.515,    -086.200,    -170.530,    0009.100,    0065.098
"FRM_AIS_EDR_2197.DAT           ",2005-09-29T21:42:04.09 ,"1/0076110119.01299",    0,   13,  274896,"AIS","B1","B1","B1","B1","PISd",0,0,0,0,"B1", 0,15,   0, 0,    0,"AIS","N/A    ","OK ","OK ",    001110.290,    -086.034,    -166.234,    0009.388,    0064.782
"FRM_AIS_EDR_2197.DAT           ",2005-09-29T21:42:11.63 ,"1/0076110126.36898",    0,   14,  274896,"AIS","B1","B1","B1","B1","PISd",0,0,0,0,"B1", 0,15,   0, 0,    0,"AIS","N/A    ","OK ","OK ",    001100.099,    -085.847,    -162.288,    0009.653,    0064.464
"FRM_AIS_EDR_2197.DAT           ",2005-09-29T21:42:19.17 ,"1/0076110134.06962",    0,   15,  274896,"AIS","B1","B1","B1","B1","PISd",0,0,0,0,"B1", 0,15,   0, 0,    0,"AIS","N/A    ","OK ","OK ",    001089.942,    -085.641,    -158.684,    0009.896,    0064.145
"FRM_AIS_EDR_2197.DAT           ",2005-09-29T21:42:26.72 ,"1/0076110141.42561",    0,   16,  274896,"AIS","B1","B1","B1","B1","PISd",0,0,0,0,"B1", 0,15,   0, 0,    0,"AIS","N/A    ","OK ","OK ",    001079.819,    -085.417,    -155.406,    0010.116,    0063.825
"FRM_AIS_EDR_2197.DAT           ",2005-09-29T21:42:34.26 ,"1/0076110149.12624",    0,   17,  274896,"AIS","B1","B1","B1","B1","PISd",0,0,0,0,"B1", 0,15,   0, 0,    0,"AIS","N/A    ","OK ","OK ",    001069.731,    -085.179,    -152.431,    0010.317,    0063.503
"FRM_AIS_EDR_2197.DAT           ",2005-09-29T21:42:41.80 ,"1/0076110156.48224",    0,   18,  274896,"AIS","B1","B1","B1","B1","PISd",0,0,0,0,"B1", 0,15,   0, 0,    0,"AIS","N/A    ","OK ","OK ",    001059.678,    -084.928,    -149.733,    0010.499,    0063.180
"FRM_AIS_EDR_2197.DAT           ",2005-09-29T21:42:49.35 ,"1/0076110164.18287",    0,   19,  274896,"AIS","B1","B1","B1","B1","PISd",0,0,0,0,"B1", 0,15,   0, 0,    0,"AIS","N/A    ","OK ","OK ",    001049.662,    -084.665,    -147.287,    0010.664,    0062.856
"FRM_AIS_EDR_2197.DAT           ",2005-09-29T21:42:56.89 ,"1/0076110171.53886",    0,   20,  274896,"AIS","B1","B1","B1","B1","PISd",0,0,0,0,"B1", 0,15,   0, 0,    0,"AIS","N/A    ","OK ","OK ",    001039.682,    -084.391,    -145.067,    0010.814,    0062.530
"FRM_AIS_EDR_2197.DAT           ",2005-09-29T21:43:04.43 ,"1/0076110179.23950",    0,   21,  274896,"AIS","B1","B1","B1","B1","PISd",0,0,0,0,"B1", 0,15,   0, 0,    0,"AIS","N/A    ","OK ","OK ",    001029.738,    -084.109,    -143.049,    0010.950,    0062.203
"FRM_AIS_EDR_2197.DAT           ",2005-09-29T21:43:11.98 ,"1/0076110186.59549",    0,   22,  274896,"AIS","B1","B1","B1","B1","PISd",0,0,0,0,"B1", 0,15,   0, 0,    0,"AIS","N/A    ","OK ","OK ",    001019.833,    -083.819,    -141.212,    0011.075,    0061.875
"FRM_AIS_EDR_2197.DAT           ",2005-09-29T21:43:19.52 ,"1/0076110194.29612",    0,   23,  274896,"AIS","B1","B1","B1","B1","PISd",0,0,0,0,"B1", 0,15,   0, 0,    0,"AIS","N/A    ","OK ","OK ",    001009.965,    -083.521,    -139.536,    0011.189,    0061.545
"FRM_AIS_EDR_2197.DAT           ",2005-09-29T21:43:27.06 ,"1/0076110201.65212",    0,   24,  274896,"AIS","B1","B1","B1","B1","PISd",0,0,0,0,"B1", 0,15,   0, 0,    0,"AIS","N/A    ","OK ","OK ",    001000.136,    -083.217,    -138.005,    0011.293,    0061.214
"FRM_AIS_EDR_2197.DAT           ",2005-09-29T21:43:34.61 ,"1/0076110209.35275",    0,   25,  274896,"AIS","B1","B1","B1","B1","PISd",0,0,0,0,"B1", 0,15,   0, 0,    0,"AIS","N/A    ","OK ","OK ",    000990.346,    -082.907,    -136.601,    0011.388,    0060.881
"FRM_AIS_EDR_2197.DAT           ",2005-09-29T21:43:42.15 ,"1/0076110217.05339",    0,   26,  274896,"AIS","B1","B1","B1","B1","PISd",0,0,0,0,"B1", 0,15,   0, 0,    0,"AIS","N/A    ","OK ","OK ",    000980.595,    -082.591,    -135.312,    0011.476,    0060.547
"FRM_AIS_EDR_2197.DAT           ",2005-09-29T21:43:49.69 ,"1/0076110224.40938",    0,   27,  274896,"AIS","B1","B1","B1","B1","PISd",0,0,0,0,"B1", 0,15,   0, 0,    0,"AIS","N/A    ","OK ","OK ",    000970.885,    -082.271,    -134.126,    0011.557,    0060.212
"FRM_AIS_EDR_2197.DAT           ",2005-09-29T21:43:57.24 ,"1/0076110232.11001",    0,   28,  274896,"AIS","B1","B1","B1","B1","PISd",0,0,0,0,"B1", 0,15,   0, 0,    0,"AIS","N/A    ","OK ","OK ",    000961.216,    -081.946,    -133.032,    0011.632,    0059.875
"FRM_AIS_EDR_2197.DAT           ",2005-09-29T21:44:04.78 ,"1/0076110239.46601",    0,   29,  274896,"AIS","B1","B1","B1","B1","PISd",0,0,0,0,"B1", 0,15,   0, 0,    0,"AIS","N/A    ","OK ","OK ",    000951.587,    -081.616,    -132.020,    0011.702,    0059.537
"FRM_AIS_EDR_2197.DAT           ",2005-09-29T21:44:12.32 ,"1/0076110247.16664",    0,   30,  274896,"AIS","B1","B1","B1","B1","PISd",0,0,0,0,"B1", 0,15,   0, 0,    0,"AIS","N/A    ","OK ","OK ",    000942.001,    -081.282,    -131.083,    0011.766,    0059.197
"FRM_AIS_EDR_2197.DAT           ",2005-09-29T21:44:19.87 ,"1/0076110254.52263",    0,   31,  274896,"AIS","B1","B1","B1","B1","PISd",0,0,0,0,"B1", 0,15,   0, 0,    0,"AIS","N/A    ","OK ","OK ",    000932.457,    -080.945,    -130.214,    0011.826,    0058.857
"FRM_AIS_EDR_2197.DAT           ",2005-09-29T21:44:27.41 ,"1/0076110262.22327",    0,   32,  274896,"AIS","B1","B1","B1","B1","PISd",0,0,0,0,"B1", 0,15,   0, 0,    0,"AIS","N/A    ","OK ","OK ",    000922.956,    -080.604,    -129.405,    0011.882,    0058.514
"FRM_AIS_EDR_2197.DAT           ",2005-09-29T21:44:34.95 ,"1/0076110269.57926",    0,   33,  274896,"AIS","B1","B1","B1","B1","PISd",0,0,0,0,"B1", 0,15,   0, 0,    0,"AIS","N/A    ","OK ","OK ",    000913.499,    -080.260,    -128.651,    0011.935,    0058.171
"FRM_AIS_EDR_2197.DAT           ",2005-09-29T21:44:42.49 ,"1/0076110277.27989",    0,   34,  274896,"AIS","B1","B1","B1","B1","PISd",0,0,0,0,"B1", 0,15,   0, 0,    0,"AIS","N/A    ","OK ","OK ",    000904.085,    -079.913,    -127.947,    0011.984,    0057.826
"FRM_AIS_EDR_2197.DAT           ",2005-09-29T21:44:50.04 ,"1/0076110284.63589",    0,   35,  274896,"AIS","B1","B1","B1","B1","PISd",0,0,0,0,"B1", 0,15,   0, 0,    0,"AIS","N/A    ","OK ","OK ",    000894.717,    -079.562,    -127.288,    0012.029,    0057.480
"FRM_AIS_EDR_2197.DAT           ",2005-09-29T21:44:57.58 ,"1/0076110292.33652",    0,   36,  274896,"AIS","B1","B1","B1","B1","PISd",0,0,0,0,"B1", 0,15,   0, 0,    0,"AIS","N/A    ","OK ","OK ",    000885.394,    -079.209,    -126.672,    0012.072,    0057.132
"FRM_AIS_EDR_2197.DAT           ",2005-09-29T21:45:05.12 ,"1/0076110300.03715",    0,   37,  274896,"AIS","B1","B1","B1","B1","PISd",0,0,0,0,"B1", 0,15,   0, 0,    0,"AIS","N/A    ","OK ","OK ",    000876.116,    -078.853,    -126.093,    0012.113,    0056.783
"FRM_AIS_EDR_2197.DAT           ",2005-09-29T21:45:12.67 ,"1/0076110307.39315",    0,   38,  274896,"AIS","B1","B1","B1","B1","PISd",0,0,0,0,"B1", 0,15,   0, 0,    0,"AIS","N/A    ","OK ","OK ",    000866.885,    -078.494,    -125.550,    0012.151,    0056.432
"FRM_AIS_EDR_2197.DAT           ",2005-09-29T21:45:20.21 ,"1/0076110315.09378",    0,   39,  274896,"AIS","B1","B1","B1","B1","PISd",0,0,0,0,"B1", 0,15,   0, 0,    0,"AIS","N/A    ","OK ","OK ",    000857.702,    -078.133,    -125.038,    0012.188,    0056.081
"FRM_AIS_EDR_2197.DAT           ",2005-09-29T21:45:27.75 ,"1/0076110322.44977",    0,   40,  274896,"AIS","B1","B1","B1","B1","PISd",0,0,0,0,"B1", 0,15,   0, 0,    0,"AIS","N/A    ","OK ","OK ",    000848.565,    -077.769,    -124.556,    0012.222,    0055.728
"FRM_AIS_EDR_2197.DAT           ",2005-09-29T21:45:35.30 ,"1/0076110330.15041",    0,   41,  274896,"AIS","B1","B1","B1","B1","PISd",0,0,0,0,"B1", 0,15,   0, 0,    0,"AIS","N/A    ","OK ","OK ",    000839.478,    -077.402,    -124.101,    0012.254,    0055.373
"FRM_AIS_EDR_2197.DAT           ",2005-09-29T21:45:42.84 ,"1/0076110337.50640",    0,   42,  274896,"AIS","B1","B1","B1","B1","PISd",0,0,0,0,"B1", 0,15,   0, 0,    0,"AIS","N/A    ","OK ","OK ",    000830.439,    -077.033,    -123.672,    0012.285,    0055.017
"FRM_AIS_EDR_2197.DAT           ",2005-09-29T21:45:50.38 ,"1/0076110345.20703",    0,   43,  274896,"AIS","B1","B1","B1","B1","PISd",0,0,0,0,"B1", 0,15,   0, 0,    0,"AIS","N/A    ","OK ","OK ",    000821.449,    -076.662,    -123.265,    0012.314,    0054.660
"FRM_AIS_EDR_2197.DAT           ",2005-09-29T21:45:57.93 ,"1/0076110352.56303",    0,   44,  274896,"AIS","B1","B1","B1","B1","PISd",0,0,0,0,"B1", 0,15,   0, 0,    0,"AIS","N/A    ","OK ","OK ",    000812.510,    -076.289,    -122.880,    0012.342,    0054.302
"FRM_AIS_EDR_2197.DAT           ",2005-09-29T21:46:05.47 ,"1/0076110360.26366",    0,   45,  274896,"AIS","B1","B1","B1","B1","PISd",0,0,0,0,"B1", 0,15,   0, 0,    0,"AIS","N/A    ","OK ","OK ",    000803.621,    -075.913,    -122.515,    0012.368,    0053.942
"FRM_AIS_EDR_2197.DAT           ",2005-09-29T21:46:13.01 ,"1/0076110367.61965",    0,   46,  274896,"AIS","B1","B1","B1","B1","PISd",0,0,0,0,"B1", 0,15,   0, 0,    0,"AIS","N/A    ","OK ","OK ",    000794.784,    -075.535,    -122.169,    0012.393,    0053.581
"FRM_AIS_EDR_2197.DAT           ",2005-09-29T21:46:20.56 ,"1/0076110375.32029",    0,   47,  274896,"AIS","B1","B1","B1","B1","PISd",0,0,0,0,"B1", 0,15,   0, 0,    0,"AIS","N/A    ","OK ","OK ",    000785.998,    -075.155,    -121.840,    0012.417,    0053.219
"FRM_AIS_EDR_2197.DAT           ",2005-09-29T21:46:28.10 ,"1/0076110383.02092",    0,   48,  274896,"AIS","B1","B1","B1","B1","PISd",0,0,0,0,"B1", 0,15,   0, 0,    0,"AIS","N/A    ","OK ","OK ",    000777.265,    -074.772,    -121.528,    0012.440,    0052.855
"FRM_AIS_EDR_2197.DAT           ",2005-09-29T21:46:35.64 ,"1/0076110390.37691",    0,   49,  274896,"AIS","B1","B1","B1","B1","PISd",0,0,0,0,"B1", 0,15,   0, 0,    0,"AIS","N/A    ","OK ","OK ",    000768.586,    -074.388,    -121.230,    0012.462,    0052.490
"FRM_AIS_EDR_2197.DAT           ",2005-09-29T21:46:43.19 ,"1/0076110398.07755",    0,   50,  274896,"AIS","B1","B1","B1","B1","PISd",0,0,0,0,"B1", 0,15,   0, 0,    0,"AIS","N/A    ","OK ","OK ",    000759.960,    -074.002,    -120.946,    0012.483,    0052.124
"FRM_AIS_EDR_2197.DAT           ",2005-09-29T21:46:50.73 ,"1/0076110405.43354",    0,   51,  274896,"AIS","B1","B1","B1","B1","PISd",0,0,0,0,"B1", 0,15,   0, 0,    0,"AIS","N/A    ","OK ","OK ",    000751.389,    -073.613,    -120.676,    0012.503,    0051.756
"FRM_AIS_EDR_2197.DAT           ",2005-09-29T21:46:58.27 ,"1/0076110413.13417",    0,   52,  274896,"AIS","B1","B1","B1","B1","PISd",0,0,0,0,"B1", 0,15,   0, 0,    0,"AIS","N/A    ","OK ","OK ",    000742.872,    -073.223,    -120.418,    0012.522,    0051.387
"FRM_AIS_EDR_2197.DAT           ",2005-09-29T21:47:05.82 ,"1/0076110420.49017",    0,   53,  274896,"AIS","B1","B1","B1","B1","PISd",0,0,0,0,"B1", 0,15,   0, 0,    0,"AIS","N/A    ","OK ","OK ",    000734.412,    -072.830,    -120.172,    0012.541,    0051.017
"FRM_AIS_EDR_2197.DAT           ",2005-09-29T21:47:13.36 ,"1/0076110428.19080",    0,   54,  274896,"AIS","B1","B1","B1","B1","PISd",0,0,0,0,"B1", 0,15,   0, 0,    0,"AIS","N/A    ","OK ","OK ",    000726.008,    -072.436,    -119.937,    0012.558,    0050.646
"FRM_AIS_EDR_2197.DAT           ",2005-09-29T21:47:20.90 ,"1/0076110435.54679",    0,   55,  274896,"AIS","B1","B1","B1","B1","PISd",0,0,0,0,"B1", 0,15,   0, 0,    0,"AIS","N/A    ","OK ","OK ",    000717.661,    -072.040,    -119.712,    0012.575,    0050.273
"FRM_AIS_EDR_2197.DAT           ",2005-09-29T21:47:28.45 ,"1/0076110443.24743",    0,   56,  274896,"AIS","B1","B1","B1","B1","PISd",0,0,0,0,"B1", 0,15,   0, 0,    0,"AIS","N/A    ","OK ","OK ",    000709.371,    -071.641,    -119.497,    0012.592,    0049.899
"FRM_AIS_EDR_2197.DAT           ",2005-09-29T21:47:35.99 ,"1/0076110450.60342",    0,   57,  274896,"AIS","B1","B1","B1","B1","PISd",0,0,0,0,"B1", 0,15,   0, 0,    0,"AIS","N/A    ","OK ","OK ",    000701.140,    -071.241,    -119.291,    0012.607,    0049.524
"FRM_AIS_EDR_2197.DAT           ",2005-09-29T21:47:43.53 ,"1/0076110458.30405",    0,   58,  274896,"AIS","B1","B1","B1","B1","PISd",0,0,0,0,"B1", 0,15,   0, 0,    0,"AIS","N/A    ","OK ","OK ",    000692.968,    -070.839,    -119.094,    0012.623,    0049.148
"FRM_AIS_EDR_2197.DAT           ",2005-09-29T21:47:51.07 ,"1/0076110466.00469",    0,   59,  274896,"AIS","B1","B1","B1","B1","PISd",0,0,0,0,"B1", 0,15,   0, 0,    0,"AIS","N/A    ","OK ","OK ",    000684.856,    -070.435,    -118.904,    0012.637,    0048.770
"FRM_AIS_EDR_2197.DAT           ",2005-09-29T21:47:58.62 ,"1/0076110473.36068",    0,   60,  274896,"AIS","B1","B1","B1","B1","PISd",0,0,0,0,"B1", 0,15,   0, 0,    0,"AIS","N/A    ","OK ","OK ",    000676.804,    -070.029,    -118.723,    0012.651,    0048.392
"FRM_AIS_EDR_2197.DAT           ",2005-09-29T21:48:06.16 ,"1/0076110481.06131",    0,   61,  274896,"AIS","B1","B1","B1","B1","PISd",0,0,0,0,"B1", 0,15,   0, 0,    0,"AIS","N/A    ","OK ","OK ",    000668.813,    -069.622,    -118.549,    0012.665,    0048.012
"FRM_AIS_EDR_2197.DAT           ",2005-09-29T21:48:13.70 ,"1/0076110488.41731",    0,   62,  274896,"AIS","B1","B1","B1","B1","PISd",0,0,0,0,"B1", 0,15,   0, 0,    0,"AIS","N/A    ","OK ","OK ",    000660.883,    -069.212,    -118.382,    0012.678,    0047.631
"FRM_AIS_EDR_2197.DAT           ",2005-09-29T21:48:21.25 ,"1/0076110496.11794",    0,   63,  274896,"AIS","B1","B1","B1","B1","PISd",0,0,0,0,"B1", 0,15,   0, 0,    0,"AIS","N/A    ","OK ","OK ",    000653.016,    -068.801,    -118.221,    0012.691,    0047.249
"FRM_AIS_EDR_2197.DAT           ",2005-09-29T21:48:28.79 ,"1/0076110503.47393",    0,   64,  274896,"AIS","B1","B1","B1","B1","PISd",0,0,0,0,"B1", 0,15,   0, 0,    0,"AIS","N/A    ","OK ","OK ",    000645.211,    -068.388,    -118.067,    0012.703,    0046.866
"FRM_AIS_EDR_2197.DAT           ",2005-09-29T21:48:36.33 ,"1/0076110511.17457",    0,   65,  274896,"AIS","B1","B1","B1","B1","PISd",0,0,0,0,"B1", 0,15,   0, 0,    0,"AIS","N/A    ","OK ","OK ",    000637.471,    -067.973,    -117.918,    0012.715,    0046.482
"FRM_AIS_EDR_2197.DAT           ",2005-09-29T21:48:43.88 ,"1/0076110518.53056",    0,   66,  274896,"AIS","B1","B1","B1","B1","PISd",0,0,0,0,"B1", 0,15,   0, 0,    0,"AIS","N/A    ","OK ","OK ",    000629.794,    -067.557,    -117.776,    0012.727,    0046.096
"FRM_AIS_EDR_2197.DAT           ",2005-09-29T21:48:51.42 ,"1/0076110526.23119",    0,   67,  274896,"AIS","B1","B1","B1","B1","PISd",0,0,0,0,"B1", 0,15,   0, 0,    0,"AIS","N/A    ","OK ","OK ",    000622.183,    -067.138,    -117.638,    0012.738,    0045.710
"FRM_AIS_EDR_2197.DAT           ",2005-09-29T21:48:58.96 ,"1/0076110533.58719",    0,   68,  274896,"AIS","B1","B1","B1","B1","PISd",0,0,0,0,"B1", 0,15,   0, 0,    0,"AIS","N/A    ","OK ","OK ",    000614.637,    -066.718,    -117.506,    0012.749,    0045.322
"FRM_AIS_EDR_2197.DAT           ",2005-09-29T21:49:06.51 ,"1/0076110541.28782",    0,   69,  274896,"AIS","B1","B1","B1","B1","PISd",0,0,0,0,"B1", 0,15,   0, 0,    0,"AIS","N/A    ","OK ","OK ",    000607.157,    -066.297,    -117.379,    0012.759,    0044.934
"FRM_AIS_EDR_2197.DAT           ",2005-09-29T21:49:14.05 ,"1/0076110548.64381",    0,   70,  274896,"AIS","B1","B1","B1","B1","PISd",0,0,0,0,"B1", 0,15,   0, 0,    0,"AIS","N/A    ","OK ","OK ",    000599.744,    -065.873,    -117.256,    0012.770,    0044.545
"FRM_AIS_EDR_2197.DAT           ",2005-09-29T21:49:21.59 ,"1/0076110556.34445",    0,   71,  274896,"AIS","B1","B1","B1","B1","PISd",0,0,0,0,"B1", 0,15,   0, 0,    0,"AIS","N/A    ","OK ","OK ",    000592.399,    -065.448,    -117.138,    0012.780,    0044.154
"FRM_AIS_EDR_2197.DAT           ",2005-09-29T21:49:29.14 ,"1/0076110564.04508",    0,   72,  274896,"AIS","B1","B1","B1","B1","PISd",0,0,0,0,"B1", 0,15,   0, 0,    0,"AIS","N/A    ","OK ","OK ",    000585.123,    -065.021,    -117.024,    0012.789,    0043.763
"FRM_AIS_EDR_2197.DAT           ",2005-09-29T21:49:36.68 ,"1/0076110571.40107",    0,   73,  274896,"AIS","B1","B1","B1","B1","PISd",0,0,0,0,"B1", 0,15,   0, 0,    0,"AIS","N/A    ","OK ","OK ",    000577.915,    -064.592,    -116.914,    0012.799,    0043.371
"FRM_AIS_EDR_2197.DAT           ",2005-09-29T21:49:44.22 ,"1/0076110579.10171",    0,   74,  274896,"AIS","B1","B1","B1","B1","PISd",0,0,0,0,"B1", 0,15,   0, 0,    0,"AIS","N/A    ","OK ","OK ",    000570.777,    -064.162,    -116.808,    0012.808,    0042.977
"FRM_AIS_EDR_2197.DAT           ",2005-09-29T21:49:51.77 ,"1/0076110586.45770",    0,   75,  274896,"AIS","B1","B1","B1","B1","PISd",0,0,0,0,"B1", 0,15,   0, 0,    0,"AIS","N/A    ","OK ","OK ",    000563.709,    -063.730,    -116.705,    0012.817,    0042.583
"FRM_AIS_EDR_2197.DAT           ",2005-09-29T21:49:59.31 ,"1/0076110594.15833",    0,   76,  274896,"AIS","B1","B1","B1","B1","PISd",0,0,0,0,"B1", 0,15,   0, 0,    0,"AIS","N/A    ","OK ","OK ",    000556.712,    -063.297,    -116.606,    0012.825,    0042.189
"FRM_AIS_EDR_2197.DAT           ",2005-09-29T21:50:06.85 ,"1/0076110601.51433",    0,   77,  274896,"AIS","B1","B1","B1","B1","PISd",0,0,0,0,"B1", 0,15,   0, 0,    0,"AIS","N/A    ","OK ","OK ",    000549.786,    -062.861,    -116.511,    0012.834,    0041.793
"FRM_AIS_EDR_2197.DAT           ",2005-09-29T21:50:14.40 ,"1/0076110609.21496",    0,   78,  274896,"AIS","B1","B1","B1","B1","PISd",0,0,0,0,"B1", 0,15,   0, 0,    0,"AIS","N/A    ","OK ","OK ",    000542.933,    -062.425,    -116.419,    0012.842,    0041.397
"FRM_AIS_EDR_2197.DAT           ",2005-09-29T21:50:21.94 ,"1/0076110616.57095",    0,   79,  274896,"AIS","B1","B1","B1","B1","PISd",0,0,0,0,"B1", 0,15,   0, 0,    0,"AIS","N/A    ","OK ","OK ",    000536.153,    -061.986,    -116.330,    0012.850,    0041.000
"FRM_AIS_EDR_2197.DAT           ",2005-09-29T21:50:29.48 ,"1/0076110624.27159",    0,   80,  274896,"AIS","B1","B1","B1","B1","PISd",0,0,0,0,"B1", 0,15,   0, 0,    0,"AIS","N/A    ","OK ","OK ",    000529.447,    -061.546,    -116.244,    0012.857,    0040.602
"FRM_AIS_EDR_2197.DAT           ",2005-09-29T21:50:37.03 ,"1/0076110631.62758",    0,   81,  274896,"AIS","B1","B1","B1","B1","PISd",0,0,0,0,"B1", 0,15,   0, 0,    0,"AIS","N/A    ","OK ","OK ",    000522.815,    -061.105,    -116.161,    0012.865,    0040.203
"FRM_AIS_EDR_2197.DAT           ",2005-09-29T21:50:44.57 ,"1/0076110639.32821",    0,   82,  274896,"AIS","B1","B1","B1","B1","PISd",0,0,0,0,"B1", 0,15,   0, 0,    0,"AIS","N/A    ","OK ","OK ",    000516.258,    -060.662,    -116.081,    0012.873,    0039.804
"FRM_AIS_EDR_2197.DAT           ",2005-09-29T21:50:52.11 ,"1/0076110647.02885",    0,   83,  274896,"AIS","B1","B1","B1","B1","PISd",0,0,0,0,"B1", 0,15,   0, 0,    0,"AIS","N/A    ","OK ","OK ",    000509.776,    -060.217,    -116.003,    0012.880,    0039.404
"FRM_AIS_EDR_2197.DAT           ",2005-09-29T21:50:59.65 ,"1/0076110654.38484",    0,   84,  274896,"AIS","B1","B1","B1","B1","PISd",0,0,0,0,"B1", 0,15,   0, 0,    0,"AIS","N/A    ","OK ","OK ",    000503.371,    -059.771,    -115.928,    0012.887,    0039.004
"FRM_AIS_EDR_2197.DAT           ",2005-09-29T21:51:07.20 ,"1/0076110662.08547",    0,   85,  274896,"AIS","B1","B1","B1","B1","PISd",0,0,0,0,"B1", 0,15,   0, 0,    0,"AIS","N/A    ","OK ","OK ",    000497.043,    -059.323,    -115.855,    0012.894,    0038.604
"FRM_AIS_EDR_2197.DAT           ",2005-09-29T21:51:14.74 ,"1/0076110669.44147",    0,   86,  274896,"AIS","B1","B1","B1","B1","PISd",0,0,0,0,"B1", 0,15,   0, 0,    0,"AIS","N/A    ","OK ","OK ",    000490.793,    -058.874,    -115.785,    0012.900,    0038.202
"FRM_AIS_EDR_2197.DAT           ",2005-09-29T21:51:22.28 ,"1/0076110677.14210",    0,   87,  274896,"AIS","B1","B1","B1","B1","PISd",0,0,0,0,"B1", 0,15,   0, 0,    0,"AIS","N/A    ","OK ","OK ",    000484.621,    -058.423,    -115.717,    0012.907,    0037.801
"FRM_AIS_EDR_2197.DAT           ",2005-09-29T21:51:29.83 ,"1/0076110684.49809",    0,   88,  274896,"AIS","B1","B1","B1","B1","PISd",0,0,0,0,"B1", 0,15,   0, 0,    0,"AIS","N/A    ","OK ","OK ",    000478.527,    -057.971,    -115.651,    0012.913,    0037.399
"FRM_AIS_EDR_2197.DAT           ",2005-09-29T21:51:37.37 ,"1/0076110692.19873",    0,   89,  274896,"AIS","B1","B1","B1","B1","PISd",0,0,0,0,"B1", 0,15,   0, 0,    0,"AIS","N/A    ","OK ","OK ",    000472.514,    -057.517,    -115.587,    0012.920,    0036.997
"FRM_AIS_EDR_2197.DAT           ",2005-09-29T21:51:44.91 ,"1/0076110699.55472",    0,   90,  274896,"AIS","B1","B1","B1","B1","PISd",0,0,0,0,"B1", 0,15,   0, 0,    0,"AIS","N/A    ","OK ","OK ",    000466.580,    -057.062,    -115.526,    0012.926,    0036.594